Location: Clanezzo
(45.7500°N, 9.6000°E)
Time: 02:28:28
(UTC+00:00)

BEESAT 2 - Visible Passes

Search period start: 26 June 2022 00:00
Search period end: 06 July 2022 00:00
Orbit: 485 x 508 km, 64.9° (Epoch: 25 June)

Date Brightness Start Highest point End Pass type
(mag) Time Alt. Az. Time Alt. Az. Time Alt. Az.
26 Jun ? 20:25:17 10° NW 20:29:06 56° WSW 20:32:18 14° SSE visible
27 Jun ? 20:03:25 10° NW 20:07:16 64° WSW 20:11:05 10° SSE visible
01 Jul ? 20:15:32 10° W 20:16:24 11° WSW 20:17:16 10° WSW visible
02 Jul ? 19:53:00 10° W 19:54:33 12° WSW 19:56:06 10° SW visible
